This demonstration page uses our WeatherBlox Daily Observations layout. Learn more.

Hourly Observations for January 16, 2020

Temp ( °F °C ) Dew Point ( °F °C ) Humidity (%) Winds ( mph kmh ) Pressure ( in mb ) Visibility ( mi km ) Precip ( " mm )
12:54 am 00:54 Clear 4 -15.6 -4 -20 69 69 N 9 15 30.78 1042 10 16.0934 0 0
1:54 am 01:54 Clear 4 -15.6 -5 -20.6 66 66 N 9 15 30.8 1043 10 16.0934 0 0
2:54 am 02:54 Clear 2 -16.7 -5 -20.6 72 72 N 6 9 30.81 1043 10 16.0934 0 0
3:54 am 03:54 Clear 3 -16.1 -5 -20.6 69 69 N 8 13 30.82 1044 10 16.0934 0 0
4:54 am 04:54 Clear 2 -16.7 -6 -21.1 69 69 N 9 15 30.83 1044 10 16.0934 0 0
5:54 am 05:54 Clear 2 -16.7 -7 -21.7 65 65 NNW 7 11 30.86 1045 10 16.0934 0 0
6:54 am 06:54 Clear 2 -16.7 -6 -21.1 69 69 NNW 5 7 30.88 1046 10 16.0934 0 0
7:54 am 07:54 Sunny 2 -16.7 -6 -21.1 69 69 N 6 9 30.89 1046 10 16.0934 0 0
8:54 am 08:54 Sunny 3 -16.1 -6 -21.1 66 66 NNE 5 7 30.91 1047 10 16.0934 0 0
9:54 am 09:54 Sunny 6 -14.4 -4 -20 63 63 NE 12 19 30.89 1046 10 16.0934 0 0
10:54 am 10:54 Sunny 9 -12.8 -4 -20 55 55 ENE 9 15 30.9 1046 10 16.0934 0 0
11:54 am 11:54 Sunny 11 -11.7 -5 -20.6 48 48 ESE 6 9 30.89 1046 10 16.0934 0 0
12:54 pm 12:54 Sunny 13 -10.6 -4 -20 46 46 E 7 11 30.84 1044 10 16.0934 0 0
1:54 pm 13:54 Sunny 15 -9.4 -2 -18.9 46 46 E 8 13 30.8 1043 10 16.0934 0 0
2:54 pm 14:54 Sunny 16 -8.9 -1 -18.3 47 47 E 6 9 30.78 1042 10 16.0934 0 0
3:54 pm 15:54 Sunny 16 -8.9 0 -17.8 49 49 E 9 15 30.76 1042 10 16.0934 0 0
4:54 pm 16:54 Sunny 16 -8.9 2 -16.7 54 54 E 8 13 30.75 1041 10 16.0934 0 0
5:54 pm 17:54 Clear 15 -9.4 2 -16.7 56 56 ESE 9 15 30.75 1041 10 16.0934 0 0
6:54 pm 18:54 Clear 15 -9.4 3 -16.1 59 59 SE 7 11 30.75 1041 10 16.0934 0 0
7:54 pm 19:54 Mostly Clear 13 -10.6 3 -16.1 64 64 SE 6 9 30.75 1041 10 16.0934 0 0
8:54 pm 20:54 Partly Cloudy 13 -10.6 4 -15.6 67 67 ESE 6 9 30.72 1040 10 16.0934 0 0
9:54 pm 21:54 Partly Cloudy 13 -10.6 5 -15 70 70 E 6 9 30.69 1039 10 16.0934 0 0
10:54 pm 22:54 Clear 14 -10 6 -14.4 71 71 ESE 7 11 30.65 1038 10 16.0934 0 0
11:54 pm 23:54 Clear 15 -9.4 7 -13.9 70 70 E 6 9 30.62 1037 10 16.0934 0 0

Powered by AerisWeather